Simultaneous Nadir Overpasses (SNOs) Predictions

Prediction of SNOs between NOAA-20 and AQUA Satellite Orbit:

Table of predicted SNOs for the next 14.0 days since TLE Epoch: 7/23/2022
Index Date (NOAA-20) Time (NOAA-20) Lat,Lon (NOAA-20) SZA (NOAA-20 ) Date (AQUA) Time (AQUA) Lat,Lon (AQUA) SZA (AQUA ) Distance(km) Time Diff (sec)
1 07/23/2022 17:14:01 -78.58, -8.19 105.46 07/23/2022 17:14:23 -78.58, -8.22 105.48 0.47 22
2 07/23/2022 18:04:36 78.92, 161.30 74.03 07/23/2022 18:03:40 78.93, 161.38 74.05 1.79 56
3 07/26/2022 08:40:08 78.59, -59.66 75.08 07/26/2022 08:40:49 78.58, -59.78 75.08 2.84 41
4 07/26/2022 09:30:43 -78.99, 110.21 105.52 07/26/2022 09:30:06 -78.99, 110.13 105.48 1.69 37
5 07/29/2022 00:06:20 -78.47,-111.92 104.15 07/29/2022 00:07:19 -78.47,-112.01 104.18 2.10 59
6 07/29/2022 00:56:53 78.85, 57.76 75.29 07/29/2022 00:56:34 78.85, 57.74 75.31 0.58 19
7 07/31/2022 15:34:28 72.89, 177.35 83.42 07/31/2022 15:35:41 72.71, 178.56 83.21 44.29 73
8 07/31/2022 16:23:02 -78.84, 6.17 104.08 07/31/2022 16:23:01 -78.84, 6.09 104.06 1.79 1
9 08/03/2022 07:49:13 78.70, -46.30 76.80 08/03/2022 07:49:29 78.70, -46.30 76.79 0.11 16
10 08/03/2022 08:39:50 -79.02, 123.12 103.69 08/03/2022 08:38:48 -79.02, 123.22 103.66 2.14 62
11 08/05/2022 23:15:25 -78.57, -98.60 102.33 08/05/2022 23:15:58 -78.58, -98.56 102.37 1.02 33



Historial Predications of SNOs between NOAA-20 and AQUA
